Location: Unspecified
(50.1700°N, 6.8600°E)
Time: 09:57:48
(UTC+00:00)

ISS - Visible Passes

Search period start: 26 March 2019 00:00
Search period end: 05 April 2019 00:00
Orbit: 408 x 411 km, 51.6° (Epoch: 26 March)

Date Brightness Start Highest point End Pass type
(mag) Time Alt. Az. Time Alt. Az. Time Alt. Az.
26 Mar -3.5 18:26:17 10° SW 18:29:29 49° SSE 18:32:42 10° ENE visible
26 Mar -3.6 20:02:44 10° W 20:05:59 69° NNW 20:05:59 69° NNW visible
27 Mar -3.8 19:12:01 10° W 19:15:19 80° NNW 19:17:28 20° ENE visible
27 Mar -1.5 20:48:45 10° WNW 20:50:14 24° WNW 20:50:14 24° WNW visible
28 Mar -3.7 19:58:01 10° W 20:01:20 65° N 20:01:37 61° NE visible
29 Mar -3.6 19:07:16 10° W 19:10:34 66° N 19:12:58 17° ENE visible
29 Mar -1.9 20:43:57 10° WNW 20:45:44 29° WNW 20:45:44 29° WNW visible
30 Mar -3.8 19:53:13 10° WNW 19:56:33 76° N 19:57:02 60° ENE visible
31 Mar -3.6 19:02:28 10° W 19:05:46 67° N 19:08:19 16° E visible
31 Mar -2.1 20:39:07 10° WNW 20:41:04 31° W 20:41:04 31° W visible
01 Apr -3.9 19:48:21 10° WNW 19:51:40 76° SSW 19:52:20 52° SE visible
02 Apr -3.8 18:57:35 10° WNW 19:00:55 84° NNE 19:03:36 15° ESE visible
02 Apr -2.0 20:34:21 10° W 20:36:21 25° WSW 20:36:21 25° WSW visible
03 Apr -3.2 19:43:27 10° W 19:46:39 44° SSW 19:47:39 33° SSE visible
04 Apr -3.6 18:52:38 10° WNW 18:55:56 65° SSW 18:58:57 12° ESE visible
04 Apr -1.4 20:29:56 10° W 20:31:42 16° SW 20:31:42 16° SW visible
